#timestamp,LO_Frequency,Hit,StdDev 
1621845155.6,286046965.5,P
1621845175.5,286046963.7,P
1621845195.3,286046963.9,P
1621845215.1,286046963.9,Y
1621845235.9,286046995.5,P
1621845255.7,286046995.1,N
1621845275.6,286046996.3,N
1621845295.4,286046996.2,N
1621845315.2,286046994.4,N
1621845335.1,286046993.7,N
1621845336.0,286046993.7,N
1621845355.8,286046995.8,N
1621845375.7,286046993.7,N
1621845395.5,286046991.8,N
1621845415.3,286046992.4,N
1621845435.2,286046992.4,N
1621845455.0,286046992.8,N
1621845455.9,286046992.8,N
1621845475.8,286046991.3,N
1621845495.6,286046993.0,N
1621845515.4,286046993.0,N
1621845535.3,286046991.9,N
1621845555.1,286046992.3,N
1621845575.8,286046990.3,N
1621845595.7,286046990.3,N
1621845615.5,286046990.8,N
1621845635.4,286046990.5,N
1621845655.2,286046988.7,N
1621845675.0,286046987.4,N
1621845675.9,286046987.4,N
1621845695.8,286046989.4,N
1621845715.6,286046989.8,N
1621845735.4,286046990.3,N
1621845755.3,286046992.4,N
1621845775.1,286046993.0,N
1621845795.9,286046990.6,Y
1621845815.7,286046996.5,P
1621845835.5,286046998.4,N
1621845855.4,286046999.5,N
1621845875.2,286046996.0,N
1621845895.1,286046994.0,N
1621845896.0,286046994.0,N
1621845915.8,286046993.6,N
1621845935.6,286046992.2,Y
1621845955.5,286046998.0,P
1621845975.3,286046996.0,P
1621845995.1,286046996.4,P
1621846015.9,286046994.6,Y
1621846035.7,286046995.5,P
1621846055.6,286046994.3,P
1621846075.4,286046994.7,P
1621846095.2,286046993.0,Y
1621846115.1,286046997.5,P
1621846116.0,286046997.5,N
1621846135.8,286046995.2,P
1621846155.7,286046997.7,N
1621846175.5,286046993.4,Y
1621846195.3,286046999.2,P
1621846215.2,286046999.0,N
1621846235.0,286046998.0,N
1621846235.9,286046998.0,N
1621846255.8,286046997.9,N
1621846275.6,286046995.4,Y
1621846295.4,286046997.7,P
1621846315.3,286046996.9,P
1621846335.1,286047000.6,N
1621846355.9,286047000.8,N
1621846375.7,286046996.6,N
1621846395.5,286046997.9,N
1621846415.4,286046997.1,N
1621846435.2,286046995.0,Y
1621846455.0,286046997.4,P
1621846455.9,286046997.4,P
1621846475.8,286046997.9,P
1621846495.6,286046993.4,Y
1621846515.5,286046997.3,P
1621846535.3,286046996.5,P
1621846555.1,286046997.2,P
1621846575.9,286046997.8,Y
1621846595.7,286046998.8,P
1621846615.6,286046996.5,P
1621846635.4,286046999.6,N
1621846655.2,286046997.1,N
1621846675.1,286046994.9,Y
1621846676.0,286046994.9,P
1621846695.8,286046999.2,N
1621846715.6,286047001.1,N
1621846735.5,286046999.3,N
1621846755.3,286046999.0,N
1621846775.2,286046997.1,N
1621846795.9,286046996.5,N
